Regional Weather Roundup
Issued by NWS

Home | Current Version | Previous Version | Graphics & Text | Print | Product List | Glossary On
Versions: 1 2 3 4 5 6 7 8 9 10 11 12 13 14 15 16 17 18 19 20 21 22 23 24 25 26 27 28 29 30 31 32 33 34 35 36 37 38 39 40 41 42 43 44 45 46 47 48 49 50
579
ASUS43 KMKX 251700
RWRWI

WISCONSIN REGIONAL WEATHER ROUNDUP
NATIONAL WEATHER SERVICE MILWAUKEE/SULLIVAN WI
1200 PM CDT WED MAY 25 2016

NOTE: "FAIR" INDICATES FEW OR NO CLOUDS BELOW 12,000 FEET WITH NO
SIGNIFICANT WEATHER AND/OR OBSTRUCTIONS TO VISIBILITY.

WIZ001-002-006>008-014>016-023>028-251800-
NORTHWEST WISCONSIN

CITY           SKY/WX    TMP DP  RH WIND       PRES   REMARKS
SUPERIOR ARPT  CLOUDY    45  45 100 NE12G20   30.04R FOG
ASHLAND        CLOUDY    53  52  96 N9        30.04S FOG
HAYWARD        CLOUDY    74  58  57 SE12      29.97F
SIREN          CLOUDY    70  60  70 NE6       29.93F
CUMBERLAND     CLOUDY    72  55  56 SE10      29.94S
RICE LAKE      CLOUDY    75  58  55 E9        29.95F
CHETEK         CLOUDY    76  62  60 SE10      29.94F
LADYSMITH      CLOUDY    76  61  60 E12       29.98F
EAU CLAIRE     NOT AVBL
MENOMONIE      CLOUDY    74  60  60 SE7       29.90F
NEW RICHMOND   HVY RAIN  67  61  80 SW3       29.93S
OSCEOLA        RAIN      66  64  91 S9        29.96R
$$

WIZ003>005-009-010-017-018-251800-
NORTH CENTRAL WISCONSIN

CITY           SKY/WX    TMP DP  RH WIND       PRES   REMARKS
MANITOWISH WTR NOT AVBL
ARBOR VITAE    CLOUDY    69  59  69 SE9       30.03F
WOODRUFF       CLOUDY    69  59  69 SE9       30.03F
RHINELANDER    MOSUNNY   66  57  72 SE9       30.04F
EAGLE RIVER      N/A     69  55  62 E8        30.05S
LAND O LAKES   CLOUDY    66  56  70 E8        30.06S
PHILLIPS       CLOUDY    70  59  68 E10       30.00S
TOMAHAWK       CLOUDY    68  60  74 E5        30.03S
MEDFORD        CLOUDY    69  61  76 E8G17     30.00S
MERRILL        CLOUDY    66  60  81 SE7       30.02F
$$

WIZ029-030-035-036-043>047-251800-
CENTRAL WISCONSIN

CITY           SKY/WX    TMP DP  RH WIND       PRES   REMARKS
WAUSAU         CLOUDY    70  59  68 E10       30.00F
MOSINEE        PTSUNNY   64  61  88 E12       30.02F
MARSHFIELD     PTSUNNY   71  59  65 E15       29.97F
STEVENS POINT  CLOUDY    65  57  77 E13       30.01F
WAUPACA        CLOUDY    70  58  67 N7        30.01F
WAUTOMA        CLOUDY    71  59  65 NE9       29.99F
WISC RAPIDS    PTSUNNY   73  57  57 E13G18    29.99F
CAMP DOUGLAS   NOT AVBL
$$

WIZ011>013-019>022-031-037>040-048>050-251800-
NORTHEAST WISCONSIN

CITY           SKY/WX    TMP DP  RH WIND       PRES   REMARKS
ANTIGO         PTSUNNY   65  60  82 E8        30.04F
SHAWANO        CLOUDY    68  60  75 E9        30.04F
OCONTO         CLOUDY    62  59  93 E10       30.04F
STURGEON BAY   NOT AVBL
GREEN BAY      CLOUDY    64  57  78 NE9       30.03F
MANITOWOC      NOT AVBL
APPLETON       PTSUNNY   66  55  68 E10       30.01R
CLINTONVILLE   PTSUNNY   70  59  68 E10       30.02F
OSHKOSH        CLOUDY    68  59  73 NE9       30.00F
$$

WIZ032>034-041-042-053>061-251800-
SOUTHWEST WISCONSIN

CITY           SKY/WX    TMP DP  RH WIND       PRES   REMARKS
LA CROSSE      CLOUDY    76  64  66 S7        29.89F
SPARTA         CLOUDY    79  63  57 E10       29.91F HX  80
VIROQUA        CLOUDY    77  61  58 E14       29.90F
BOSCOBEL       CLOUDY    82  62  50 SE8       29.89F HX  83
PRAIRIE DU CHI PTSUNNY   77  61  58 SE9       29.88S
PLATTEVILLE    CLOUDY    79  62  55 SE15      29.92F HX  81
$$

WIZ056-057-062-063-064-067-068-251800-
SOUTH CENTRAL WISCONSIN

CITY           SKY/WX    TMP DP  RH WIND       PRES   REMARKS
REEDSBURG      PTSUNNY   78  64  61 S5        29.95F HX  80
BARABOO/DELLS  PTSUNNY   79  61  54 SE10      29.96F HX  80
LONE ROCK      PTSUNNY   81  63  54 SE12G18   29.92F HAZE    HX  82
MINERAL POINT  MOSUNNY   81  63  54 SE13G18   29.93F HX  82
MADISON        PTSUNNY   80  63  55 S12       29.95F HX  81
MIDDLETON      MOSUNNY   81  63  55 S9        29.96F HX  82
WATERTOWN      PTSUNNY   80  66  62 S7        29.97F HX  82
MONROE         PTSUNNY   79  64  61 SE12G20   29.94F HX  81
JANESVILLE     NOT AVBL
$$

WIZ051-052-058>065-066-070>072-251800-
SOUTHEAST WISCONSIN

CITY           SKY/WX    TMP DP  RH WIND       PRES   REMARKS
MILWAUKEE      PTSUNNY   60  52  74 NE12      30.01F
WAUKESHA       SUNNY     72  61  68 E7        30.00F
MILWAUKEE/TIMM SUNNY     64  52  63 NE8       30.01F
RACINE         CLOUDY    62  52  69 NE10      30.02S
BURLINGTON     MOSUNNY   82  62  49 S8        29.98S HX  83
KENOSHA        PTSUNNY   76  63  64 E14       29.99R
FOND DU LAC    PTSUNNY   76  61  59 E7        29.99F
SHEBOYGAN      CLOUDY    57  52  83 NE15      30.03S
WEST BEND      CLOUDY    68  57  68 E9        30.01S
JUNEAU         PTSUNNY   78  65  63 SE8       29.98F HX  80
$$

LSZ147-162-251800-
LAKE SUPERIOR

STATION/POSITION TIME  TEMP    WIND        PRES    WAVE
                       AIR SEA DIR/SP/G            HT/PER
                 (UTC) (F)     (DEG/KT/KT) (MB)    (FT/S)
W MID LAKE BUOY  1550   40 38   50/ 16/ 17 1018.5F   1/ 3
DEVILS ISLAND    1600   44      60/ 17/ 19 1018.3R
PORT WING        1600   44      30/ 16/ 18 1017.3S
SAXON HARBOR     1600   46     340/  1/  3 1016.6F
$$

LMZ867-665-643>646-251800-
LAKE MICHIGAN

STATION/POSITION TIME  TEMP    WIND        PRES    WAVE
                       AIR SEA DIR/SP/G            HT/PER
                 (UTC) (F)     (DEG/KT/KT) (MB)    (FT/S)
CHAMBERS ISLAND  1600   54      40/ 10/ 13 1018.3S
N MID LAKE BUOY  1550   49 45   20/  8/ 10 1017.9F   0
NORTHPORT PIER   1600   56      80/  1/  4 1018.3S
SISTER BAY       1650   55     340/ 12/ 14   N/A
ALGOMA LAKESHORE 1602           70/ 14/ 15   N/A
KEWAUNEE LAKESHO 1600   52      20/  6/  8 1016.9S
SHEBOYGAN LAKESH 1600   50      20/ 14/ 15 1017.6F
PORT WASHINGTON  1600   55      50/ 10/ 12 1017.3F
S MID LAKE BUOY  1550   54 49  150/  6/  8 1016.2S   1
KENOSHA   LAKESH 1600   63     140/  5/  6 1015.6S
$$

TC  - TEMPERATURE IN CELSIUS
VSB - VISIBILITY IN STATUTE MILES
WCI - WIND CHILL INDEX
HX  - HEAT INDEX





USA.gov is the U.S. government's official web portal to all federal, state and local government web resources and services.